Theta_e
317 314 310 309 309 309 309 309 309 309 309 309 309 308 308 308 308 307 307 307 307 306 306 306 306 306 306 306 306 306 306 306 306 305 306 306 306 305 305 305 305 305
319 317 311 310 310 309 309 309 309 310 310 310 310 309 309 309 308 308 308 307 307 307 307 306 306 306 306 306 306 306 306 306 305 305 305 305 305 305 305 304 304 305
320 319 313 311 312 312 311 311 312 311 310 310 310 310 310 310 309 309 308 308 308 307 307 307 307 307 306 306 306 306 306 306 305 305 305 305 305 304 304 304 304 304
321 320 316 313 314 316 315 315 316 314 313 312 310 309 310 310 310 309 309 309 309 309 308 308 308 307 307 307 307 307 306 306 306 305 305 305 305 305 304 304 304 304
321 320 318 315 316 319 318 317 317 316 315 314 312 310 310 310 311 311 310 310 310 310 310 309 309 308 308 308 308 307 307 307 306 306 306 305 305 305 305 305 304 304
321 320 319 317 317 319 319 319 319 318 317 316 315 314 314 314 314 313 313 313 312 312 311 311 311 310 309 309 308 308 308 308 307 307 307 306 306 305 305 305 305 305
322 321 322 321 319 319 320 320 320 319 319 318 317 317 317 317 317 317 316 317 317 316 314 313 313 312 312 311 310 309 309 308 308 308 308 307 307 307 306 306 306 306
323 322 323 323 323 322 322 322 322 321 320 319 319 319 319 319 318 318 318 319 319 319 318 317 316 315 315 314 313 312 311 310 309 309 309 308 308 307 307 307 306 307
324 324 323 324 324 323 322 322 322 322 321 320 320 319 319 319 318 318 319 320 320 320 320 319 318 318 317 317 316 315 314 313 312 311 310 309 309 308 308 307 307 307
324 324 324 323 322 322 323 323 322 322 322 322 321 320 319 319 318 319 319 320 320 321 321 320 319 319 318 318 318 317 317 316 315 313 312 311 310 309 308 308 308 308
322 322 322 320 319 318 320 321 321 321 321 322 321 320 319 319 319 318 319 319 319 320 320 320 320 319 319 319 319 318 318 317 316 315 314 313 312 311 309 309 308 308
320 321 321 319 317 317 318 319 320 319 318 319 319 318 318 318 318 317 318 318 318 319 320 320 320 320 319 319 319 319 318 318 317 317 316 315 314 312 311 310 309 308
318 320 321 320 318 318 318 318 318 317 317 317 317 317 317 316 317 316 316 316 316 317 318 319 320 319 319 319 319 318 318 318 318 317 316 316 315 314 313 311 311 309
320 321 322 321 320 319 318 317 316 317 318 319 319 318 317 317 317 317 317 317 317 317 317 318 319 319 319 319 319 318 318 318 318 317 317 316 315 315 314 313 312 311
318 318 317 316 315 314 312 312 312 314 317 318 318 317 316 315 315 315 316 316 316 316 316 317 318 318 319 319 319 318 317 318 318 317 317 317 316 315 314 314 314 313
309 309 308 308 308 308 308 309 310 312 313 315 314 314 314 314 315 316 317 317 317 316 316 316 318 319 319 319 319 318 317 318 318 318 317 316 316 315 315 314 314 313
307 307 307 308 308 309 310 311 312 313 315 316 317 317 316 317 317 318 318 317 317 318 318 318 318 319 319 319 319 318 318 318 318 318 317 316 316 315 315 315 314 313
306 308 308 308 308 309 309 310 311 312 314 315 316 317 317 317 317 317 317 317 317 317 318 317 317 318 319 319 319 318 317 317 317 318 318 317 316 316 315 315 314 313
306 307 306 307 307 308 308 309 309 310 311 313 314 315 316 316 317 317 317 317 315 314 315 315 316 317 319 319 319 318 317 317 317 318 319 318 316 316 315 314 313 311
306 306 307 307 307 307 308 308 308 308 309 309 311 313 314 316 316 316 316 316 314 312 313 313 314 315 316 317 318 318 318 318 318 318 318 317 316 315 314 313 312 311
306 306 306 307 307 307 306 305 305 305 306 307 308 309 311 312 313 314 315 315 315 314 313 312 310 311 311 312 314 316 318 318 318 317 316 315 314 313 312 311 310 309
306 306 307 306 305 305 304 303 303 303 304 304 304 305 307 310 312 313 313 314 314 315 315 313 310 308 308 310 312 315 317 317 317 316 315 313 312 312 312 310 308 308
306 307 308 306 305 304 304 304 303 302 302 301 301 302 304 307 310 312 312 312 313 314 314 314 312 311 311 314 315 316 317 316 316 314 313 312 311 310 310 308 307 306
307 307 307 307 307 306 305 304 303 302 302 301 300 300 301 305 308 310 311 312 312 312 313 313 313 312 313 315 316 316 316 315 314 313 312 311 310 309 307 306 305 305
306 306 307 307 308 306 305 303 303 303 303 302 301 300 300 303 307 309 311 312 312 312 312 312 313 312 313 314 315 315 315 315 313 312 311 309 308 307 306 305 305 306
306 306 306 306 305 305 304 304 304 304 304 304 302 300 299 302 306 309 310 311 311 311 311 312 312 312 312 313 314 314 314 314 314 312 311 309 309 308 307 306 305 304
Wind_Speed
18 15 15 16 15 13 12 11 10 11 11 12 11 11 10 10 9 8 8 8 8 8 7 7 6 5 5 7 7 7 7 7 6 7 6 6 6 6 5 4 4 3
18 16 14 15 14 12 11 10 9 8 8 9 9 9 9 9 9 9 8 7 7 6 6 6 5 4 3 4 5 5 5 6 6 6 6 6 6 6 5 4 4 5
18 17 15 14 13 12 11 9 9 7 6 5 5 6 7 6 6 7 7 7 6 6 5 5 4 4 3 3 3 3 3 5 5 6 6 6 6 5 5 4 4 5
18 17 16 15 12 11 10 10 9 8 7 5 4 3 4 3 3 3 4 4 4 4 4 4 3 3 2 2 3 3 3 3 4 4 5 5 5 5 5 4 4 4
18 16 14 14 13 10 9 9 9 9 8 7 6 4 3 2 1 1 2 2 3 3 3 3 3 3 2 2 2 2 2 2 2 3 3 3 3 4 3 3 4 3
18 15 11 11 13 11 9 9 9 9 9 8 8 7 6 5 5 5 4 4 5 5 5 5 5 5 4 4 4 3 2 2 1 0 1 1 2 2 2 1 2 2
17 14 11 10 11 11 10 10 9 9 9 8 7 7 7 6 7 8 8 8 7 7 7 6 7 8 7 7 7 6 6 5 4 3 3 2 1 1 0 0 1 0
19 17 15 14 13 11 10 10 10 10 10 9 8 8 8 7 8 10 10 11 11 10 9 8 7 8 8 9 10 10 9 9 7 6 6 6 4 4 3 3 4 4
21 19 18 16 14 12 11 12 11 11 12 11 11 11 9 8 8 8 10 11 13 13 12 12 11 10 10 10 11 12 11 12 12 10 9 10 8 7 7 6 5 5
18 17 18 17 15 13 13 14 14 14 14 14 14 14 14 12 10 9 9 11 13 14 13 14 13 12 12 12 12 13 13 14 14 13 12 12 12 10 10 10 8 7
15 18 21 19 17 17 17 19 19 17 16 16 15 17 17 15 13 12 12 14 15 15 14 14 15 15 15 15 15 15 15 15 15 14 13 14 14 12 12 13 11 9
16 20 21 18 17 19 21 22 23 22 21 20 18 20 22 20 16 14 15 17 18 17 16 15 16 17 18 19 17 16 17 18 18 16 15 15 16 14 14 14 13 11
16 18 19 17 17 19 20 19 20 21 20 17 18 22 25 23 19 16 16 18 19 19 21 21 20 20 22 23 21 19 18 19 20 19 17 17 17 16 16 15 14 13
14 15 16 16 15 16 15 12 12 14 13 13 17 21 22 19 17 17 18 19 19 19 23 25 25 24 24 25 25 22 20 20 21 22 21 21 20 18 17 17 15 15
9 9 9 9 9 9 9 8 8 9 10 13 16 18 17 15 15 16 17 19 19 19 22 25 26 26 26 27 27 25 23 22 23 25 25 24 23 21 20 19 17 16
6 6 5 5 4 3 4 5 6 5 7 8 9 10 10 10 11 12 13 14 16 18 20 22 23 23 24 27 28 28 27 26 25 25 27 28 26 23 22 21 19 17
7 6 5 4 3 2 2 1 1 2 3 4 4 5 6 7 8 9 10 11 13 15 16 18 18 18 19 21 24 26 28 29 28 27 27 29 28 26 25 23 20 18
6 5 4 3 2 1 1 1 1 1 2 3 4 5 6 8 9 9 10 11 12 13 14 14 15 15 16 18 20 23 26 29 30 29 28 30 30 28 27 24 21 19
5 5 4 4 3 4 5 6 6 6 5 5 5 7 8 10 10 10 11 13 14 13 13 13 14 14 15 16 18 20 22 25 29 30 29 31 31 29 28 24 20 19
5 6 6 6 7 8 9 10 10 10 10 9 9 9 9 10 11 12 12 14 16 16 15 14 14 14 15 16 17 19 21 24 27 28 28 29 30 28 26 23 20 18
6 5 7 8 9 9 9 8 7 7 8 9 10 11 11 11 11 12 13 14 16 17 16 15 14 15 16 17 18 19 19 20 23 25 27 28 27 24 22 20 18 18
5 6 7 8 8 9 7 6 5 4 5 6 7 9 10 11 11 12 13 14 15 15 15 15 15 16 17 17 18 18 17 17 20 25 28 28 24 21 21 20 18 18
6 7 9 9 10 9 8 6 6 6 6 6 6 7 9 10 11 12 14 15 16 16 16 16 16 16 16 16 16 16 16 17 20 24 25 24 21 20 21 19 18 17
8 9 10 10 11 10 10 11 11 11 10 8 7 7 8 10 11 13 14 15 16 18 18 18 17 17 16 15 15 15 16 18 21 22 22 20 18 18 18 16 16 17
11 10 10 11 12 13 14 15 14 13 13 11 9 9 9 10 12 14 16 17 18 18 19 18 18 17 17 16 15 15 16 18 20 21 20 18 18 17 15 15 17 19
14 14 14 14 15 15 16 16 16 15 15 15 13 12 10 12 14 16 17 18 19 19 19 19 19 18 17 15 14 15 16 18 20 21 20 19 18 18 17 17 18 19
Wind_Direction
183 177 166 162 162 159 150 140 131 123 119 115 109 105 100 96 96 98 101 103 107 109 107 105 100 91 86 83 79 76 79 81 82 85 90 94 99 104 109 113 101 86
188 183 174 170 169 168 163 152 142 134 124 117 112 111 107 99 96 94 92 93 96 101 105 109 105 99 88 74 75 75 71 75 81 85 90 90 93 103 111 112 104 102
193 189 183 181 177 172 170 165 156 148 143 138 125 119 114 104 97 94 89 85 85 85 90 94 97 100 100 81 80 77 64 68 73 79 84 83 83 92 96 92 91 98
202 196 189 187 183 172 172 177 173 168 173 178 176 155 135 120 99 84 75 76 77 71 69 67 64 70 72 61 66 68 63 62 59 60 68 74 79 84 83 80 81 83
211 204 193 188 184 179 182 190 192 189 191 199 212 224 224 231 265 337 360 9 16 17 24 20 7 20 20 8 22 40 51 58 59 67 73 77 81 83 81 70 73 81
211 206 193 183 182 188 196 201 205 203 203 208 217 232 247 264 281 293 299 308 318 322 324 327 325 325 323 319 321 324 332 338 316 24 57 82 97 96 99 89 82 93
201 198 192 183 182 192 196 194 199 203 205 208 216 233 248 264 283 295 297 296 296 300 303 304 307 310 309 307 305 303 301 294 277 272 299 306 232 206 358 317 290 310
193 193 193 188 185 188 185 184 191 197 198 199 204 219 234 251 273 289 295 296 295 296 296 295 297 299 300 302 302 299 296 293 284 271 280 290 279 275 297 294 287 304
189 191 196 194 192 196 197 196 199 203 206 207 206 208 217 232 253 275 289 294 296 296 296 297 297 296 297 299 299 296 292 291 289 282 276 279 281 281 286 284 272 282
188 196 203 199 196 204 213 215 217 222 224 223 222 222 223 226 231 244 261 274 283 286 285 287 287 289 293 295 295 294 289 285 286 284 277 275 278 279 280 284 277 273
196 209 214 213 215 220 224 225 226 230 233 232 236 238 236 235 235 238 247 257 265 268 268 271 275 276 277 280 283 285 285 283 281 280 276 274 277 277 275 277 279 280
204 213 220 227 233 231 229 229 230 234 239 242 247 251 251 254 255 251 254 261 263 260 255 255 256 258 261 262 263 268 273 275 274 273 273 272 273 273 269 271 276 280
218 218 223 230 234 233 232 235 237 240 242 242 246 253 256 258 258 254 257 261 260 256 252 249 246 250 256 260 259 258 258 263 268 266 264 266 267 266 265 266 269 273
214 209 212 216 221 224 221 221 228 233 236 240 247 254 258 258 258 257 252 248 247 249 250 249 247 247 251 256 260 259 253 254 261 262 261 262 260 257 260 263 265 270
197 200 207 212 220 231 234 234 238 238 239 245 249 254 258 258 259 258 250 243 244 247 249 249 250 251 252 251 254 259 257 251 252 255 258 258 254 251 254 259 264 271
174 180 188 198 212 242 260 250 246 239 235 238 243 248 252 253 255 257 256 255 255 254 255 257 258 260 257 252 251 256 257 251 248 252 253 251 248 248 250 255 261 268
162 161 160 158 149 121 105 132 188 226 234 233 233 243 253 259 266 271 273 273 268 263 261 262 262 262 261 260 258 258 256 251 248 250 250 246 245 247 251 255 259 263
171 176 169 152 146 148 167 195 205 222 257 265 263 268 274 273 274 279 283 283 278 272 266 263 263 265 268 270 267 262 258 252 246 246 247 246 245 247 251 253 255 257
172 178 175 170 189 209 215 217 219 222 228 242 259 269 273 273 273 274 280 284 282 278 274 269 267 267 267 269 268 262 255 248 245 247 250 249 246 245 247 249 252 254
193 182 180 193 209 219 224 228 232 232 229 229 236 242 251 261 267 270 274 278 279 281 281 277 271 268 267 267 265 261 254 250 249 249 248 245 241 240 242 245 250 256
215 204 201 212 221 227 234 238 238 236 234 234 236 240 245 251 258 263 266 270 274 277 278 277 272 269 269 267 265 265 263 257 251 246 238 231 228 231 239 245 249 255
230 226 230 240 247 252 258 257 250 251 255 257 257 252 249 251 256 260 261 263 270 273 273 275 274 270 271 272 271 273 273 264 254 244 233 224 221 230 242 246 248 251
223 227 242 257 268 274 277 274 275 282 283 283 285 273 255 251 255 262 263 262 266 269 271 274 276 275 276 277 276 276 273 262 251 241 233 229 233 238 241 242 247 253
229 238 247 255 264 271 274 278 281 283 285 290 295 290 273 258 255 261 265 262 260 263 265 268 272 274 275 275 272 268 263 255 247 242 240 240 240 237 238 244 253 260
236 237 237 242 254 263 272 278 280 281 284 290 296 296 284 263 253 256 261 261 260 261 263 264 265 267 270 271 267 263 258 253 249 245 240 235 233 235 240 247 256 261
241 241 244 250 259 266 273 278 280 282 284 287 292 295 284 262 252 253 258 260 260 260 261 262 262 265 268 266 261 258 255 250 246 245 241 238 241 247 248 250 255 255